STARLINK-35130 (65740 NORAD) Tracking and Keplerian Element Data

This shows tracking and keplerian element data for the satellite.

Feedback or suggestion? Click here.




ElementValue
Catalog65740
NameSTARLINK-35130
Epoch Orbit1428
Epoch Day353.27634441
Epoch Year2025
RAAN346.2865
Inclination53.1591
Eccentricity0.0001375
Argument of Perigee93.5028
Mean Anonmoly266.613
Mean Motion15.30228006
Decay Rate0.00019628
L11 65740U 25216G 25353.27634441 .00019628 00000+0 67249-3 0 9993
L22 65740 53.1591 346.2865 0001375 93.5028 266.6130 15.30228006 14281



Live tracking and technical data element details for STARLINK-35130 (NORAD 65740). STARLINK-35130 can be tracked NOW for your location showing map with azimuth and elevation plus other details from your city location.







IsCatalogInMostPopularTable: catalog: 65740, numindb: 12
Update: records affected: 1



GetName: 65740 STARLINK-35130

Hit Count: updated at: Thu, 21 May 2026 11:24:18 GMT